Вернуться в каталог

COSMOS 2251 DEB

АктивенLEO
NORAD 34944·DEBRIS·🇷🇺 Russia

Запущен Jun 16, 1993 с Plesetsk Cosmodrome

Loading…

Ближайшие Пролёты (ближайшие 24 часа)

TLE

СвежийSource: Space-Track

Эпоха: Sep 14, 2026, 05:35 UTC

1 34944U 93036ADX 26257.23311179  .00000835  00000-0  35556-3 0  9997
2 34944  73.7463  94.7043 0219198 257.7768  99.8748 14.14831678679780

Отслеживайте COSMOS 2251 DEB в реальном времени с AllMySat

Download on the App Store